GW5308 Weather Reports


Display with metric or nautical units.
time (UTC)temp
F
wind
direction
speed
MPH
gust
MPH
rain 1hr
in
rain 24hr
in
rain mn
in
humidity
%
barometer
mb
20260510182511 95 184 1.0 4.0 0.00 0.12 0.00 55 1014.1
20260510182014 95 199 1.0 4.0 0.00 0.12 0.00 56 1014.1
20260510181532 95 192 0.0 3.0 0.00 0.12 0.00 54 1014.1
20260510181016 95 75 1.0 4.0 0.00 0.12 0.00 53 1014.1
20260510180514 95 224 0.0 4.0 0.00 0.12 0.00 53 1014.3
20260510180044 95 259 1.0 3.0 0.00 0.12 0.00 57 1014.4
20260510175514 95 207 1.0 4.0 0.00 0.12 0.00 54 1014.4
20260510175013 94 206 0.0 4.0 0.00 0.12 0.00 59 1014.5
20260510174531 94 262 1.0 4.0 0.00 0.12 0.00 56 1014.5
20260510174017 94 315 0.0 2.0 0.00 0.12 0.00 58 1014.8
20260510173513 94 214 0.0 2.0 0.00 0.12 0.00 58 1014.7
20260510173033 94 332 0.0 2.0 0.00 0.12 0.00 59 1014.9
20260510172514 93 247 0.0 4.0 0.00 0.12 0.00 59 1014.9
20260510172021 93 250 1.0 5.0 0.00 0.12 0.00 58 1015.0
20260510171531 92 200 0.0 5.0 0.00 0.12 0.00 61 1015.1
20260510171013 92 257 1.0 4.0 0.00 0.12 0.00 62 1015.2
20260510170514 92 236 0.0 2.0 0.00 0.12 0.00 66 1015.2
20260510170036 92 172 0.0 2.0 0.00 0.12 0.00 64 1015.2
20260510165513 91 0 0.0 2.0 0.00 0.12 0.00 69 1015.2
20260510165013 90 245 0.0 4.0 0.00 0.12 0.00 68 1015.4
20260510164547 90 225 1.0 4.0 0.00 0.12 0.00 66 1015.5
20260510164014 90 159 1.0 3.0 0.00 0.12 0.00 68 1015.6
20260510163514 90 0 1.0 2.0 0.00 0.12 0.00 67 1015.7
20260510163030 90 0 0.0 2.0 0.00 0.12 0.00 71 1015.8
20260510162515 89 0 0.0 2.0 0.00 0.12 0.00 70 1015.8
20260510162015 89 0 0.0 0.0 0.00 0.12 0.00 73 1015.8
20260510161542 89 0 0.0 0.0 0.00 0.12 0.00 74 1015.9
20260510161015 89 0 0.0 2.0 0.00 0.12 0.00 71 1015.8
20260510160513 89 0 0.0 2.0 0.00 0.12 0.00 75 1015.9
20260510160039 88 0 0.0 2.0 0.00 0.12 0.00 72 1015.9
20260510155514 89 297 1.0 2.0 0.00 0.12 0.00 71 1015.9
20260510155014 89 205 0.0 2.0 0.00 0.12 0.00 75 1015.8
20260510154532 88 0 0.0 1.0 0.00 0.12 0.00 75 1015.8
20260510154014 87 0 0.0 0.0 0.00 0.12 0.00 76 1015.9
20260510153512 87 0 0.0 0.0 0.00 0.12 0.00 75 1015.9
20260510153032 87 0 0.0 0.0 0.00 0.12 0.00 77 1016.0
20260510152515 86 0 0.0 1.0 0.00 0.12 0.00 80 1016.0
20260510152017 86 0 0.0 3.0 0.00 0.12 0.00 79 1015.9
20260510151530 86 289 0.0 3.0 0.00 0.12 0.00 80 1015.9
20260510151011 85 217 1.0 3.0 0.00 0.12 0.00 79 1015.8
20260510150515 85 0 0.0 2.0 0.00 0.12 0.00 78 1015.7
20260510150030 85 182 0.0 3.0 0.00 0.12 0.00 79 1015.7
20260510145514 85 231 0.0 3.0 0.00 0.12 0.00 82 1015.7
20260510145014 85 231 0.0 2.0 0.00 0.12 0.00 80 1015.6
20260510144532 85 124 0.0 2.0 0.00 0.12 0.00 82 1015.5
20260510144013 84 0 0.0 1.0 0.00 0.12 0.00 84 1015.6
20260510143516 84 0 0.0 1.0 0.00 0.12 0.00 84 1015.6
20260510143039 83 0 0.0 2.0 0.00 0.12 0.00 85 1015.6
20260510142516 83 0 0.0 2.0 0.00 0.12 0.00 86 1015.6
20260510142018 82 0 0.0 1.0 0.00 0.12 0.00 87 1015.6
20260510141535 82 213 0.0 2.0 0.00 0.12 0.00 87 1015.6
20260510141017 81 0 0.0 2.0 0.00 0.12 0.00 90 1015.5
20260510140517 81 0 0.0 1.0 0.00 0.12 0.00 91 1015.4
20260510140039 80 0 0.0 1.0 0.00 0.12 0.00 92 1015.4
20260510135516 80 0 0.0 1.0 0.00 0.12 0.00 94 1015.3
20260510135017 79 0 0.0 1.0 0.00 0.12 0.00 97 1015.3
20260510134534 78 0 0.0 1.0 0.00 0.12 0.00 98 1015.3
20260510134017 78 0 0.0 1.0 0.00 0.12 0.00 99 1015.2
20260510133515 77 0 0.0 0.0 0.00 0.12 0.00 100 1015.2
20260510133033 77 0 0.0 1.0 0.00 0.12 0.00 100 1015.1
20260510132514 76 0 0.0 1.0 0.00 0.12 0.00 100 1015.2
20260510132018 76 0 0.0 1.0 0.00 0.12 0.00 100 1015.2
20260510131533 76 0 0.0 1.0 0.00 0.12 0.00 100 1015.1
20260510131013 75 0 0.0 1.0 0.00 0.12 0.00 100 1015.1
20260510130515 75 0 0.0 1.0 0.00 0.12 0.00 100 1015.0
20260510130034 75 0 0.0 1.0 0.00 0.12 0.00 100 1015.1
20260510125513 75 0 0.0 0.0 0.00 0.12 0.00 100 1015.1
20260510125016 75 0 0.0 0.0 0.00 0.12 0.00 100 1015.0
20260510124556 75 0 0.0 0.0 0.00 0.12 0.00 100 1015.0
20260510124016 74 0 0.0 1.0 0.00 0.12 0.00 100 1015.1
20260510123514 74 0 0.0 1.0 0.00 0.12 0.00 100 1014.9
20260510123035 74 0 0.0 0.0 0.00 0.12 0.00 100 1014.8
20260510122517 73 0 0.0 0.0 0.00 0.12 0.00 100 1014.7
20260510122016 73 0 0.0 0.0 0.00 0.12 0.00 100 1014.7
20260510121532 73 0 0.0 0.0 0.00 0.12 0.00 100 1014.6
20260510121016 72 0 0.0 0.0 0.00 0.12 0.00 100 1014.5
20260510120514 72 0 0.0 0.0 0.00 0.12 0.00 100 1014.5
20260510120034 72 0 0.0 0.0 0.00 0.12 0.00 100 1014.5
20260510115516 72 0 0.0 0.0 0.00 0.12 0.00 100 1014.3
20260510115016 71 0 0.0 0.0 0.00 0.12 0.00 100 1014.3
20260510114533 71 0 0.0 0.0 0.00 0.12 0.00 100 1014.3
20260510114020 71 0 0.0 0.0 0.00 0.12 0.00 100 1014.1
20260510113517 71 0 0.0 0.0 0.00 0.12 0.00 100 1014.0
20260510113037 70 0 0.0 0.0 0.00 0.12 0.00 100 1013.9
20260510112521 70 0 0.0 0.0 0.00 0.12 0.00 100 1013.8
20260510112018 70 0 0.0 0.0 0.00 0.12 0.00 100 1013.7
20260510111554 70 0 0.0 0.0 0.00 0.12 0.00 100 1013.8
20260510111014 70 0 0.0 0.0 0.00 0.12 0.00 100 1013.8
20260510110516 70 0 0.0 0.0 0.00 0.12 0.00 100 1013.7
20260510110031 70 0 0.0 0.0 0.00 0.12 0.00 100 1013.6
20260510105514 70 0 0.0 0.0 0.00 0.12 0.00 100 1013.6
20260510105016 70 0 0.0 0.0 0.00 0.12 0.00 100 1013.5
20260510104540 70 0 0.0 0.0 0.00 0.12 0.00 100 1013.4
20260510104015 70 0 0.0 0.0 0.00 0.12 0.00 100 1013.4
20260510103512 70 0 0.0 0.0 0.00 0.12 0.00 100 1013.4
20260510103035 70 0 0.0 0.0 0.00 0.12 0.00 100 1013.2
20260510102515 70 0 0.0 0.0 0.00 0.12 0.00 100 1013.0
20260510102015 70 0 0.0 0.0 0.00 0.12 0.00 100 1013.0
20260510101531 70 0 0.0 0.0 0.00 0.12 0.00 100 1013.0
20260510101014 70 0 0.0 0.0 0.00 0.12 0.00 100 1012.9
20260510100521 70 0 0.0 0.0 0.00 0.12 0.00 100 1012.9
20260510100034 70 0 0.0 0.0 0.00 0.12 0.00 100 1012.9
20260510095513 70 0 0.0 0.0 0.00 0.12 0.00 100 1012.9
20260510095014 70 0 0.0 0.0 0.00 0.12 0.00 100 1012.9
20260510094531 70 0 0.0 0.0 0.00 0.12 0.00 100 1012.8
20260510094013 70 0 0.0 0.0 0.00 0.12 0.00 100 1012.7
20260510093512 70 0 0.0 0.0 0.00 0.12 0.00 100 1012.6
20260510093030 71 0 0.0 0.0 0.00 0.12 0.00 100 1012.5
20260510092514 71 0 0.0 0.0 0.00 0.12 0.00 100 1012.6
20260510092016 70 0 0.0 0.0 0.00 0.12 0.00 100 1012.6
20260510091548 71 0 0.0 0.0 0.00 0.12 0.00 100 1012.5
20260510091013 71 0 0.0 0.0 0.00 0.12 0.00 100 1012.4
20260510090514 71 0 0.0 0.0 0.00 0.12 0.00 100 1012.3
20260510090034 71 0 0.0 0.0 0.00 0.12 0.00 100 1012.3
20260510085515 71 0 0.0 0.0 0.00 0.12 0.00 100 1012.2
20260510085013 71 0 0.0 0.0 0.00 0.12 0.00 100 1012.2
20260510084539 71 0 0.0 0.0 0.00 0.12 0.00 100 1012.2
20260510084012 70 0 0.0 0.0 0.00 0.12 0.00 100 1012.1
20260510083520 70 0 0.0 0.0 0.00 0.12 0.00 100 1012.0
20260510083031 70 0 0.0 0.0 0.00 0.12 0.00 100 1011.9
20260510082514 70 0 0.0 0.0 0.00 0.12 0.00 100 1012.0
20260510082012 70 0 0.0 0.0 0.00 0.12 0.00 100 1012.2
20260510081538 70 0 0.0 0.0 0.00 0.12 0.00 100 1012.2
20260510081014 69 0 0.0 0.0 0.00 0.12 0.00 100 1012.2
20260510080512 69 0 0.0 0.0 0.00 0.12 0.00 100 1012.3
20260510080037 69 0 0.0 0.0 0.00 0.12 0.00 100 1012.3
20260510075516 69 0 0.0 0.0 0.00 0.12 0.00 100 1012.2
20260510075014 69 0 0.0 0.0 0.00 0.12 0.00 100 1012.2
20260510074534 69 0 0.0 0.0 0.00 0.12 0.00 100 1012.2
20260510074018 69 0 0.0 0.0 0.00 0.12 0.00 100 1012.2
20260510073522 69 0 0.0 0.0 0.00 0.12 0.00 100 1012.3
20260510073038 69 0 0.0 0.0 0.00 0.12 0.00 100 1012.3
20260510072514 69 0 0.0 0.0 0.00 0.12 0.00 100 1012.3
20260510072015 69 0 0.0 0.0 0.00 0.12 0.00 100 1012.4
20260510071537 69 0 0.0 0.0 0.00 0.12 0.00 100 1012.4
20260510071013 69 0 0.0 0.0 0.00 0.12 0.00 100 1012.5
20260510070513 69 0 0.0 0.0 0.00 0.12 0.00 100 1012.5
20260510070043 69 0 0.0 0.0 0.00 0.12 0.00 100 1012.6
20260510065515 69 0 0.0 0.0 0.00 0.12 0.00 100 1012.6
20260510065016 69 0 0.0 0.0 0.00 0.12 0.00 100 1012.7
20260510064554 70 0 0.0 0.0 0.00 0.12 0.00 100 1012.6
20260510064012 70 0 0.0 0.0 0.00 0.12 0.00 100 1012.6
20260510063515 70 0 0.0 0.0 0.00 0.12 0.00 100 1012.8
20260510063043 70 0 0.0 0.0 0.00 0.12 0.00 100 1012.9
20260510062516 70 0 0.0 0.0 0.00 0.12 0.00 100 1012.9
20260510062015 70 0 0.0 0.0 0.00 0.12 0.00 100 1013.1
20260510061544 70 0 0.0 0.0 0.00 0.12 0.00 100 1013.1
20260510061015 70 0 0.0 0.0 0.00 0.12 0.00 100 1013.1
20260510060515 70 0 0.0 0.0 0.00 0.12 0.00 100 1013.4
20260510060039 70 0 0.0 0.0 0.00 0.12 0.00 100 1013.4
20260510055514 70 0 0.0 0.0 0.00 0.12 0.00 100 1013.4
20260510055015 70 0 0.0 0.0 0.00 0.12 0.00 100 1013.4
20260510054533 70 0 0.0 0.0 0.00 0.12 0.00 100 1013.4
20260510054013 70 0 0.0 0.0 0.00 0.12 0.00 100 1013.6
20260510053516 70 0 0.0 0.0 0.00 0.12 0.00 100 1013.6
20260510053031 70 0 0.0 0.0 0.00 0.12 0.00 100 1013.6
20260510052517 70 0 0.0 0.0 0.00 0.12 0.00 100 1013.7
20260510052017 70 0 0.0 0.0 0.00 0.12 0.00 100 1013.8
20260510051532 70 0 0.0 0.0 0.00 0.12 0.00 100 1013.8
20260510051015 70 0 0.0 0.0 0.00 0.12 0.00 100 1013.9
20260510050513 70 0 0.0 0.0 0.00 0.12 0.00 100 1013.9
20260510050032 70 0 0.0 0.0 0.00 0.12 0.00 100 1014.0
20260510045515 70 0 0.0 0.0 0.00 0.12 0.00 100 1014.0
20260510045020 70 0 0.0 0.0 0.00 0.12 0.00 100 1014.0
20260510044536 70 0 0.0 0.0 0.00 0.12 0.00 100 1014.0
20260510044012 70 0 0.0 0.0 0.00 0.12 0.00 100 1014.0
20260510043512 70 0 0.0 0.0 0.00 0.12 0.00 100 1014.0
20260510043034 70 0 0.0 0.0 0.00 0.12 0.00 100 1014.0
20260510042512 70 0 0.0 0.0 0.00 0.12 0.00 100 1014.1
20260510042012 70 0 0.0 0.0 0.00 0.12 0.00 100 1014.2
20260510041537 70 0 0.0 0.0 0.00 0.12 0.00 100 1014.0
20260510041012 70 0 0.0 0.0 0.00 0.12 0.00 100 1014.0
20260510040512 71 0 0.0 0.0 0.00 0.12 0.00 100 1014.1
20260510040030 71 0 0.0 0.0 0.00 0.12 0.00 100 1014.0
20260510035513 71 0 0.0 0.0 0.00 0.12 0.12 100 1014.1
20260510035013 71 0 0.0 0.0 0.00 0.12 0.12 100 1014.2
20260510034532 71 0 0.0 0.0 0.00 0.12 0.12 100 1014.0
20260510034014 71 0 0.0 0.0 0.00 0.12 0.12 100 1014.0
20260510033515 71 0 0.0 0.0 0.00 0.12 0.12 100 1013.9
20260510033033 71 0 0.0 0.0 0.00 0.12 0.12 100 1013.9
20260510032512 71 0 0.0 0.0 0.00 0.12 0.12 100 1013.9
20260510032016 71 0 0.0 0.0 0.00 0.12 0.12 100 1013.9
20260510031536 71 0 0.0 0.0 0.00 0.12 0.12 100 1013.8
20260510031015 71 0 0.0 0.0 0.00 0.12 0.12 100 1013.9
20260510030514 72 0 0.0 0.0 0.00 0.12 0.12 100 1014.0
20260510030031 71 0 0.0 0.0 0.00 0.12 0.12 100 1013.9
20260510025513 72 0 0.0 0.0 0.00 0.12 0.12 100 1014.0
20260510025015 72 0 0.0 0.0 0.00 0.12 0.12 100 1013.9
20260510024539 72 0 0.0 0.0 0.00 0.12 0.12 100 1013.9
20260510024014 71 0 0.0 0.0 0.00 0.12 0.12 100 1013.8
20260510023514 72 0 0.0 0.0 0.00 0.12 0.12 100 1013.8
20260510023030 71 0 0.0 0.0 0.00 0.12 0.12 100 1013.8
20260510022514 72 0 0.0 0.0 0.00 0.12 0.12 100 1013.7
20260510022016 71 0 0.0 0.0 0.00 0.12 0.12 100 1013.7
20260510021529 71 0 0.0 0.0 0.00 0.12 0.12 100 1013.8
20260510021053 71 0 0.0 0.0 0.00 0.12 0.12 100 1013.8
20260510020515 72 0 0.0 0.0 0.00 0.12 0.12 100 1013.7
20260510020032 72 0 0.0 0.0 0.00 0.12 0.12 100 1013.7
20260510015518 72 0 0.0 0.0 0.00 0.12 0.12 100 1013.7
20260510015015 72 0 0.0 0.0 0.00 0.12 0.12 100 1013.5
20260510014539 72 0 0.0 0.0 0.00 0.12 0.12 100 1013.5
20260510014015 72 0 0.0 0.0 0.00 0.12 0.12 100 1013.5
20260510013520 72 0 0.0 0.0 0.00 0.12 0.12 100 1013.5
20260510013032 72 0 0.0 0.0 0.00 0.12 0.12 100 1013.4
20260510012515 72 0 0.0 0.0 0.00 0.12 0.12 100 1013.4
20260510012016 72 0 0.0 0.0 0.00 0.12 0.12 99 1013.5
20260510011535 72 0 0.0 0.0 0.00 0.12 0.12 99 1013.4
20260510011014 72 0 0.0 0.0 0.00 0.12 0.12 99 1013.3
20260510010514 72 0 0.0 0.0 0.00 0.12 0.12 99 1013.2
20260510010032 72 0 0.0 0.0 0.00 0.12 0.12 99 1013.2
20260510005517 72 0 0.0 0.0 0.00 0.12 0.12 99 1013.2
20260510005018 72 0 0.0 0.0 0.00 0.12 0.12 99 1013.2
20260510004536 72 0 0.0 0.0 0.00 0.12 0.12 99 1013.0
20260510004020 73 0 0.0 0.0 0.00 0.12 0.12 98 1013.0
20260510003525 73 0 0.0 0.0 0.00 0.12 0.12 98 1013.0
20260510003045 73 0 0.0 0.0 0.00 0.12 0.12 98 1013.0
20260510002515 73 0 0.0 0.0 0.00 0.12 0.12 98 1012.9
20260510002014 74 0 0.0 0.0 0.00 0.12 0.12 97 1012.7
20260510001531 74 0 0.0 0.0 0.00 0.12 0.12 97 1012.7
20260510001014 74 0 0.0 0.0 0.00 0.12 0.12 97 1012.6
20260510000516 74 0 0.0 1.0 0.00 0.12 0.12 96 1012.6
20260510000037 74 0 0.0 1.0 0.00 0.12 0.12 95 1012.5
20260509235516 74 0 0.0 1.0 0.00 0.13 0.12 95 1012.4
20260509235016 74 0 0.0 1.0 0.00 0.13 0.12 95 1012.4
20260509234555 75 0 0.0 1.0 0.00 0.13 0.12 96 1012.3
20260509234014 75 0 0.0 0.0 0.00 0.13 0.12 96 1012.2
20260509233516 75 0 0.0 0.0 0.00 0.13 0.12 96 1012.3
20260509233042 75 0 0.0 1.0 0.00 0.13 0.12 95 1012.3
20260509232517 75 169 0.0 1.0 0.00 0.13 0.12 95 1012.2
20260509232016 75 0 0.0 3.0 0.00 0.13 0.12 95 1012.2
20260509231545 75 0 0.0 3.0 0.00 0.13 0.12 96 1012.3
20260509231016 75 0 0.0 2.0 0.00 0.13 0.12 96 1012.2
20260509230513 75 0 0.0 2.0 0.00 0.13 0.12 96 1012.2
20260509230032 75 6 0.0 3.0 0.00 0.13 0.12 96 1012.0
20260509225512 75 0 0.0 3.0 0.00 0.13 0.12 96 1011.9
20260509225016 76 0 0.0 2.0 0.00 0.13 0.12 96 1011.8
20260509224533 76 351 0.0 2.0 0.00 0.13 0.12 96 1011.8
20260509224016 76 0 0.0 2.0 0.01 0.13 0.12 96 1011.9
20260509223515 76 18 0.0 2.0 0.01 0.13 0.12 96 1011.9
20260509223035 76 0 0.0 2.0 0.01 0.13 0.12 96 1012.0
20260509222514 76 29 0.0 2.0 0.01 0.13 0.12 96 1011.9
20260509222015 76 0 0.0 2.0 0.01 0.13 0.12 96 1011.9
20260509221531 76 0 0.0 1.0 0.01 0.13 0.12 96 1012.0
20260509221017 76 0 0.0 3.0 0.01 0.13 0.12 96 1011.8
20260509220516 76 8 1.0 3.0 0.01 0.13 0.12 95 1012.0
20260509220031 76 0 1.0 2.0 0.01 0.13 0.12 95 1012.0
20260509215514 76 0 0.0 2.0 0.01 0.13 0.12 95 1011.9
20260509215018 77 325 0.0 2.0 0.07 0.13 0.12 94 1011.8
20260509214533 77 0 0.0 2.0 0.07 0.12 0.11 93 1011.9
20260509214012 77 0 0.0 2.0 0.11 0.12 0.11 94 1011.9
20260509213524 78 0 0.0 2.0 0.11 0.12 0.11 94 1011.7
20260509213031 78 0 0.0 2.0 0.11 0.12 0.11 95 1011.6
20260509212513 78 314 0.0 2.0 0.11 0.12 0.11 94 1011.4
20260509212014 78 0 0.0 3.0 0.11 0.12 0.11 95 1011.5
20260509211534 78 0 0.0 3.0 0.11 0.12 0.11 95 1011.4
20260509211015 78 330 0.0 3.0 0.11 0.12 0.11 93 1011.4
20260509210516 78 3 0.0 2.0 0.11 0.12 0.11 95 1011.2
20260509210038 78 0 0.0 2.0 0.11 0.12 0.11 92 1011.0
20260509205514 79 0 0.0 1.0 0.10 0.11 0.10 91 1010.9
20260509205015 80 0 0.0 2.0 0.05 0.06 0.05 88 1011.3
20260509204535 81 214 0.0 4.0 0.04 0.05 0.04 84 1011.4
20260509204017 82 0 0.0 4.0 0.00 0.01 0.00 78 1011.0
20260509203514 82 355 0.0 6.0 0.00 0.01 0.00 75 1010.8
20260509203040 83 324 1.0 6.0 0.00 0.01 0.00 75 1010.6
20260509202513 84 293 2.0 6.0 0.00 0.01 0.00 73 1010.7
20260509202015 85 329 1.0 5.0 0.00 0.01 0.00 72 1010.8
20260509201530 85 235 1.0 5.0 0.00 0.01 0.00 71 1010.8
20260509201013 85 337 1.0 3.0 0.00 0.01 0.00 71 1010.8
20260509200519 86 273 1.0 3.0 0.00 0.01 0.00 71 1010.9
20260509200030 87 184 0.0 5.0 0.00 0.01 0.00 69 1010.8
20260509195514 88 219 1.0 5.0 0.00 0.01 0.00 66 1010.8
20260509195017 90 205 1.0 3.0 0.00 0.01 0.00 60 1010.6
20260509194532 92 0 0.0 1.0 0.00 0.01 0.00 58 1010.6
20260509194013 92 169 0.0 1.0 0.00 0.01 0.00 56 1010.4
20260509193516 92 261 0.0 1.0 0.00 0.01 0.00 57 1010.4
20260509193036 92 0 0.0 2.0 0.00 0.01 0.00 58 1010.4
20260509192514 92 238 0.0 2.0 0.00 0.01 0.00 57 1010.6
20260509192018 92 0 0.0 2.0 0.00 0.01 0.00 57 1010.6
20260509191533 92 261 0.0 2.0 0.00 0.01 0.00 55 1010.7
20260509191015 92 224 0.0 2.0 0.00 0.01 0.00 56 1010.7
20260509190512 92 0 0.0 2.0 0.00 0.01 0.00 55 1010.9
20260509190035 92 139 0.0 3.0 0.00 0.01 0.00 55 1011.0
20260509185512 92 240 1.0 3.0 0.00 0.01 0.00 54 1011.0
20260509185014 93 227 0.0 2.0 0.00 0.01 0.00 53 1011.0
20260509184540 93 0 0.0 3.0 0.00 0.01 0.00 55 1011.1
20260509184014 93 225 0.0 5.0 0.00 0.01 0.00 55 1011.0
20260509183514 93 221 2.0 5.0 0.00 0.01 0.00 54 1011.1
20260509183035 93 252 1.0 3.0 0.00 0.01 0.00 52 1011.3